Date,TemperatureHighF,TemperatureAvgF,TemperatureLowF,DewpointHighF,DewpointAvgF,DewpointLowF,HumidityHigh,HumidityAvg,HumidityLow,PressureMaxIn,PressureMinIn,WindSpeedMaxMPH,WindSpeedAvgMPH,GustSpeedMaxMPH,PrecipitationSumIn
2013-1-1,23.0,15.4,7.0,11.0,1.7,-6.0,65,54,40,0.00,40.00,21,12,27,0.00
2013-1-2,21.0,15.1,5.0,6.0,-0.1,-10.0,59,50,40,0.00,40.00,24,11,31,0.00
2013-1-3,24.0,14.9,5.0,2.0,-4.9,-11.0,47,40,36,0.00,40.00,27,19,35,0.00
2013-1-4,28.0,19.4,14.0,3.0,-3.0,-7.0,39,36,32,0.00,40.00,29,19,37,0.00
2013-1-5,27.0,17.8,10.0,4.0,-3.1,-10.0,44,38,33,0.00,40.00,23,16,31,0.00
2013-1-6,38.0,27.2,19.0,9.0,2.2,-2.0,39,33,25,0.00,40.00,31,20,39,0.00
2013-1-7,35.0,26.2,19.0,7.0,2.4,-3.0,41,35,28,0.00,40.00,27,18,34,0.00
2013-1-8,38.0,29.8,23.0,13.0,9.6,5.0,53,42,34,0.00,40.00,26,16,34,0.00
2013-1-9,45.0,35.3,26.0,16.0,12.1,7.0,52,39,26,0.00,40.00,35,24,46,0.00
2013-1-10,47.0,38.6,27.0,9.0,6.3,4.0,42,25,19,0.00,40.00,39,20,50,0.00
2013-1-11,29.0,8.5,0.0,15.0,-1.7,-10.0,70,62,42,0.00,40.00,29,14,36,0.00
2013-1-12,7.0,1.5,-4.0,-6.0,-9.8,-14.0,61,58,52,0.00,40.00,10,5,13,0.00
2013-1-13,8.0,-1.0,-9.0,-9.0,-13.3,-19.0,61,55,43,0.00,40.00,15,6,18,0.00
2013-1-14,8.0,-0.6,-9.0,-9.0,-14.4,-19.0,59,51,44,0.00,40.00,26,16,30,0.00
2013-1-15,20.0,13.3,2.0,3.0,-2.9,-14.0,49,47,44,0.00,40.00,29,21,37,0.00
2013-1-16,33.0,22.1,15.0,10.0,3.8,0.0,49,44,37,0.00,40.00,31,21,39,0.00
2013-1-17,37.0,25.7,18.0,9.0,3.3,0.0,45,37,29,0.00,40.00,29,20,34,0.00
2013-1-18,44.0,30.7,19.0,7.0,3.0,-1.0,40,30,20,0.00,40.00,30,15,37,0.00
2013-1-19,44.0,30.1,19.0,5.0,2.2,-3.0,37,30,18,0.00,40.00,25,15,32,0.00
2013-1-20,29.0,24.2,18.0,11.0,6.4,0.0,65,46,33,0.00,40.00,22,10,27,0.00
2013-1-21,44.0,30.1,17.0,8.0,4.0,1.0,50,34,18,0.00,40.00,26,16,34,0.00
2013-1-22,48.0,33.9,23.0,4.0,1.8,-1.0,35,26,14,0.00,40.00,29,16,36,0.00
2013-1-23,51.0,39.0,33.0,5.0,2.1,0.0,26,21,14,0.00,40.00,29,20,37,0.00
2013-1-24,48.0,39.3,27.0,18.0,10.7,2.0,56,31,21,0.00,40.00,32,17,41,0.00
2013-1-25,48.0,34.8,22.0,17.0,13.7,10.0,64,44,23,0.00,40.00,30,10,39,0.00
2013-1-26,51.0,39.4,28.0,21.0,16.9,12.0,55,40,28,0.00,40.00,30,15,36,0.00
2013-1-27,44.0,35.9,28.0,21.0,19.8,18.0,72,52,36,0.00,40.00,17,9,21,0.00
2013-1-28,29.0,23.6,13.0,21.0,14.1,4.0,72,66,53,0.00,40.00,16,8,19,0.00
2013-1-29,23.0,12.6,4.0,6.0,-1.7,-9.0,65,53,33,0.00,40.00,23,12,27,0.00
2013-1-30,31.0,18.3,-3.0,12.0,1.9,-13.0,67,49,35,0.00,40.00,21,14,30,0.00
2013-1-31,34.0,24.9,12.0,12.0,8.3,2.0,65,49,35,0.00,40.00,16,8,21,0.00
2013-2-1,36.0,28.6,19.0,17.0,11.8,8.0,69,49,38,0.00,40.00,19,11,26,0.00
2013-2-2,41.0,28.3,16.0,8.0,5.6,1.0,51,38,22,0.00,40.00,22,11,27,0.00
2013-2-3,43.0,30.9,20.0,10.0,6.7,2.0,54,36,23,0.00,40.00,24,14,30,0.00
2013-2-4,43.0,32.2,24.0,9.0,6.1,3.0,41,33,22,0.00,40.00,20,12,25,0.00
2013-2-5,46.0,33.8,21.0,14.0,9.9,5.0,50,37,25,0.00,40.00,23,13,29,0.00
2013-2-6,41.0,34.5,24.0,15.0,9.8,6.0,64,36,27,0.00,40.00,22,12,27,0.00
2013-2-7,42.0,29.4,17.0,14.0,3.9,-2.0,69,38,16,0.00,40.00,32,16,39,0.00
2013-2-8,46.0,33.3,21.0,18.0,4.7,-2.0,69,32,16,0.00,40.00,17,9,20,0.00
2013-2-9,27.0,24.6,21.0,17.0,14.2,10.0,69,64,47,0.00,40.00,21,14,27,0.00
2013-2-10,23.0,17.8,5.0,14.0,6.7,-5.0,69,61,47,0.00,40.00,29,8,36,0.00
2013-2-11,19.0,10.5,1.0,-1.0,-4.6,-10.0,61,50,37,0.00,40.00,21,13,24,0.00
2013-2-12,24.0,16.3,9.0,4.0,-1.5,-7.0,51,44,38,0.00,40.00,27,19,32,0.00
2013-2-13,40.0,26.6,17.0,18.0,9.5,3.0,69,49,26,0.00,40.00,28,16,34,0.00
2013-2-14,27.0,21.7,17.0,17.0,6.6,-3.0,68,52,30,0.00,40.00,29,11,39,0.00
2013-2-15,31.0,21.3,11.0,11.0,5.9,1.0,65,52,30,0.00,40.00,20,9,27,0.00
2013-2-16,42.0,30.0,20.0,13.0,8.7,3.0,50,40,29,0.00,40.00,29,18,34,0.00
2013-2-17,42.0,30.8,23.0,18.0,10.4,5.0,67,44,22,0.00,40.00,32,20,40,0.00
2013-2-18,29.0,22.9,12.0,14.0,8.8,-1.0,66,55,32,0.00,40.00,17,7,21,0.00
2013-2-19,40.0,24.5,6.0,8.0,0.9,-5.0,61,39,16,0.00,40.00,25,12,32,0.00
2013-2-20,37.0,25.3,13.0,13.0,7.2,3.0,69,48,27,0.00,40.00,21,10,24,0.00
2013-2-21,26.0,20.6,14.0,13.0,9.7,3.0,68,62,48,0.00,40.00,12,7,15,0.00
2013-2-22,33.0,20.9,11.0,8.0,0.8,-7.0,66,44,19,0.00,40.00,18,9,28,0.00
2013-2-23,37.0,27.4,17.0,19.0,10.1,1.0,70,49,30,0.00,40.00,34,20,43,0.00
2013-2-24,26.0,20.3,8.0,14.0,8.9,-3.0,68,61,42,0.00,40.00,32,18,40,0.00
2013-2-25,26.0,18.6,7.0,6.0,0.8,-5.0,59,45,37,0.00,40.00,34,22,41,0.00
2013-2-26,28.0,23.7,17.0,15.0,9.6,5.0,68,55,41,0.00,40.00,27,14,34,0.00
2013-2-27,23.0,17.0,9.0,7.0,1.4,-5.0,64,50,39,0.00,40.00,22,13,26,0.00
2013-2-28,31.0,21.2,11.0,7.0,0.9,-4.0,48,40,34,0.00,40.00,22,15,30,0.00
2013-3-1,41.0,30.2,16.0,17.0,8.5,-2.0,48,39,30,0.00,40.00,19,11,28,0.00
2013-3-2,47.0,39.8,33.0,20.0,17.6,14.0,47,40,33,0.00,40.00,27,18,34,0.00
2013-3-3,48.0,38.7,24.0,20.0,16.7,11.0,62,41,30,0.00,40.00,34,20,39,0.00
2013-3-4,26.0,20.9,11.0,14.0,1.1,-5.0,66,43,27,0.00,40.00,31,8,39,0.00
2013-3-5,42.0,25.1,9.0,5.0,1.2,-3.0,58,38,18,0.00,40.00,19,11,27,0.00
2013-3-6,53.0,39.3,27.0,13.0,8.0,3.0,38,28,17,0.00,40.00,30,18,39,0.00
2013-3-7,51.0,40.5,31.0,16.0,12.5,9.0,44,32,22,0.00,40.00,20,12,24,0.00
2013-3-8,53.0,36.8,28.0,19.0,16.0,11.0,67,43,22,0.00,40.00,17,7,24,0.00
2013-3-9,35.0,29.9,22.0,20.0,11.3,3.0,68,48,27,0.00,40.00,34,20,42,0.00
2013-3-10,50.0,33.0,17.0,11.0,5.3,-1.0,64,36,14,0.00,40.00,14,7,19,0.00
2013-3-11,40.0,30.9,21.0,20.0,13.7,3.0,70,51,21,0.00,40.00,26,4,32,0.00
2013-3-12,42.0,27.4,10.0,17.0,11.0,0.0,68,51,29,0.00,40.00,16,8,22,0.00
2013-3-13,58.0,44.4,32.0,19.0,15.4,10.0,55,33,16,0.00,40.00,25,15,31,0.00
2013-3-14,64.0,50.2,35.0,20.0,15.6,11.0,42,26,13,0.00,40.00,25,14,34,0.00
2013-3-15,63.0,51.2,39.0,19.0,14.6,11.0,39,23,13,0.00,40.00,26,13,30,0.00
2013-3-16,50.0,38.8,30.0,23.0,18.0,12.0,63,44,23,0.00,40.00,18,9,23,0.00
2013-3-17,44.0,31.9,15.0,21.0,10.7,-9.0,71,46,12,0.00,40.00,37,-10,51,0.00
2013-3-18,35.0,24.8,14.0,4.0,-1.1,-5.0,53,33,19,0.00,40.00,28,11,34,0.00
2013-3-19,34.0,25.0,17.0,15.0,7.7,2.0,68,49,26,0.00,40.00,22,11,27,0.00
2013-3-20,50.0,32.5,14.0,20.0,9.1,-2.0,61,41,13,0.00,40.00,36,17,44,0.00
2013-3-21,39.0,30.8,18.0,24.0,19.0,9.0,72,61,48,0.00,40.00,26,13,34,0.00
2013-3-22,29.0,22.4,17.0,15.0,10.4,6.0,68,60,40,0.00,40.00,26,7,30,0.00
2013-3-23,18.0,13.5,11.0,6.0,2.9,0.0,64,62,56,0.00,40.00,22,15,28,0.00
2013-3-25,34.0,22.9,4.0,4.0,0.9,-6.0,63,39,26,0.00,40.00,17,10,22,0.00
2013-3-26,43.0,31.5,21.0,8.0,4.3,1.0,43,31,19,0.00,40.00,17,9,23,0.00
2013-3-27,52.0,39.5,26.0,21.0,13.3,3.0,43,34,24,0.00,40.00,18,7,24,0.00
2013-3-28,56.0,45.0,33.0,19.0,13.2,7.0,43,28,15,0.00,40.00,19,6,26,0.00
2013-3-29,60.0,46.7,37.0,27.0,16.3,8.0,61,31,15,0.00,40.00,21,9,38,0.00
2013-3-30,47.0,38.6,31.0,29.0,21.7,-99.9,70,54,25,0.00,40.00,21,7,29,0.00
2013-3-31,57.0,41.9,29.0,18.0,14.2,7.0,55,35,14,0.00,40.00,24,12,29,0.00
2013-4-1,52.0,39.8,28.0,17.0,13.2,6.0,52,35,22,0.00,40.00,14,7,22,0.00
2013-4-2,55.0,42.4,29.0,17.0,9.7,5.0,37,26,16,0.00,40.00,13,7,19,0.00
2013-4-3,62.0,46.7,33.0,26.0,18.0,10.0,53,34,15,0.00,40.00,20,12,26,0.00
2013-4-4,67.0,50.7,32.0,26.0,17.7,9.0,65,32,10,0.00,40.00,24,10,27,0.00
2013-4-5,64.0,51.4,36.0,28.0,20.8,14.0,67,32,17,0.00,40.00,42,17,52,0.00
2013-4-6,57.0,46.4,33.0,21.0,14.1,8.0,58,30,14,0.00,40.00,24,11,42,0.00
2013-4-7,56.0,45.9,32.0,21.0,17.1,14.0,51,32,21,0.00,40.00,31,16,40,0.00
2013-4-8,44.0,25.6,11.0,26.0,12.1,2.0,71,58,33,0.00,40.00,35,22,44,0.00
2013-4-9,11.0,9.5,8.0,2.0,-0.2,-2.0,65,63,61,0.00,40.00,32,22,42,0.00
2013-4-10,26.0,17.1,7.0,8.0,2.1,-3.0,64,52,35,0.00,40.00,16,7,20,0.00
2013-4-11,45.0,34.2,25.0,24.0,16.9,5.0,67,49,35,0.00,40.00,19,9,24,0.00
2013-4-12,39.0,32.9,28.0,25.0,20.1,13.0,71,60,39,0.00,40.00,19,10,24,0.00
2013-4-13,49.0,37.7,26.0,23.0,17.9,13.0,69,46,27,0.00,40.00,34,17,42,0.00
2013-4-14,33.0,27.6,19.0,22.0,10.2,1.0,70,50,26,0.00,40.00,22,14,29,0.00
2013-4-15,26.0,20.7,15.0,9.0,6.4,4.0,66,54,39,0.00,40.00,17,10,21,0.00
2013-4-16,20.0,18.8,18.0,10.0,7.6,4.0,66,61,48,0.00,40.00,29,19,34,0.00
2013-4-17,20.0,17.6,16.0,8.0,7.2,6.0,66,63,56,0.00,40.00,24,14,29,0.00
2013-4-18,32.0,21.1,9.0,8.0,4.1,-2.0,65,48,32,0.00,40.00,15,9,20,0.00
2013-4-19,48.0,35.5,25.0,21.0,12.4,5.0,52,38,26,0.00,40.00,19,13,23,0.00
2013-4-20,55.0,42.9,35.0,27.0,21.4,17.0,59,43,23,0.00,40.00,18,7,22,0.00
2013-4-21,52.0,38.9,28.0,28.0,21.6,12.0,71,53,20,0.00,40.00,29,10,40,0.00
2013-4-22,27.0,21.3,14.0,19.0,9.2,3.0,69,59,45,0.00,40.00,28,18,34,0.00
2013-4-23,36.0,22.6,6.0,6.0,0.2,-10.0,61,40,14,0.00,40.00,17,1,22,0.00
2013-4-24,44.0,33.7,25.0,11.0,5.4,-1.0,39,30,19,0.00,40.00,26,11,37,0.00
2013-4-25,59.0,45.1,31.0,10.0,5.3,-2.0,38,21,9,0.00,40.00,24,14,33,0.00
2013-4-26,65.0,50.8,30.0,15.0,8.7,1.0,42,20,9,0.00,40.00,17,8,24,0.00
2013-4-27,71.0,55.6,36.0,20.0,12.5,6.0,38,19,9,0.00,40.00,24,10,34,0.00
2013-4-28,63.0,53.0,42.0,27.0,20.8,14.0,54,29,19,0.00,40.00,26,11,31,0.00
2013-4-29,68.0,51.7,34.0,28.0,16.7,5.0,66,32,9,0.00,40.00,42,22,52,0.00
2013-4-30,38.0,33.4,28.0,25.0,15.9,9.0,71,49,33,0.00,40.00,28,16,36,0.00
2013-5-1,36.0,27.5,21.0,20.0,13.1,6.0,70,55,29,0.00,40.00,22,12,27,0.00
2013-5-2,49.0,36.5,22.0,18.0,8.3,1.0,62,35,15,0.00,40.00,16,8,23,0.00
2013-5-3,63.0,48.0,28.0,13.0,6.2,1.0,36,19,9,0.00,40.00,17,8,22,0.00
2013-5-4,55.0,45.6,36.0,17.0,14.5,11.0,42,29,20,0.00,40.00,18,11,26,0.00
2013-5-5,58.0,47.0,34.0,17.0,13.2,9.0,36,26,17,0.00,40.00,18,11,28,0.00
2013-5-6,66.0,53.0,36.0,23.0,18.0,15.0,40,25,16,0.00,40.00,18,8,23,0.00
2013-5-7,70.0,53.7,39.0,31.0,23.9,16.0,44,32,18,0.00,40.00,30,12,41,0.00
2013-5-8,66.0,55.4,43.0,30.0,24.3,20.0,48,31,18,0.00,40.00,27,13,35,0.00
2013-5-9,68.0,53.2,43.0,35.0,28.2,24.0,65,39,20,0.00,40.00,29,8,37,0.00
2013-5-10,67.0,52.3,37.0,33.0,22.2,-99.9,67,37,13,0.00,40.00,25,10,32,0.00
2013-5-11,69.0,54.3,38.0,31.0,19.1,-99.9,65,30,10,0.00,40.00,15,6,21,0.00
2013-5-12,77.0,64.3,48.0,27.0,22.4,17.0,31,20,13,0.00,40.00,21,10,34,0.00
2013-5-13,84.0,69.9,53.0,31.0,24.6,20.0,31,19,9,0.00,40.00,20,10,31,0.00
2013-5-14,84.0,69.6,58.0,34.0,23.1,15.0,37,18,9,0.00,40.00,29,13,51,0.00
2013-5-15,78.0,59.5,42.0,41.0,29.9,21.0,59,34,18,0.00,40.00,27,8,35,0.00
2013-5-16,73.0,56.7,47.0,40.0,18.1,-99.9,68,38,15,0.00,40.00,32,11,44,0.00
2013-5-17,79.0,60.0,48.0,42.0,29.1,-99.9,69,42,9,0.00,40.00,32,10,40,0.00
2013-5-18,71.0,54.9,44.0,40.0,29.3,16.0,69,44,12,0.00,40.00,29,9,35,0.00
2013-5-19,53.0,47.1,45.0,37.0,34.6,28.0,68,61,42,0.00,40.00,22,5,30,0.00
2013-5-20,51.0,44.7,41.0,34.0,27.0,17.0,66,51,26,0.00,40.00,30,21,40,0.00
2013-5-21,60.0,48.9,40.0,29.0,23.0,16.0,62,40,18,0.00,40.00,21,10,29,0.00
2013-5-22,63.0,49.7,38.0,32.0,26.7,21.0,67,44,20,0.00,40.00,38,13,52,0.00
2013-5-23,65.0,53.4,42.0,35.0,32.3,31.0,67,46,29,0.00,40.00,43,30,55,0.00
2013-5-24,72.0,61.4,47.0,36.0,19.7,4.0,55,25,9,0.00,40.00,27,16,36,0.00
2013-5-25,80.0,65.0,45.0,34.0,17.7,2.0,49,19,9,0.00,40.00,25,10,34,0.00
2013-5-26,76.0,60.6,45.0,38.0,31.7,15.0,63,36,17,0.00,40.00,22,10,29,0.00
2013-5-27,73.0,58.9,47.0,42.0,28.1,10.0,69,38,9,0.00,40.00,36,12,44,0.00
2013-5-28,72.0,54.7,43.0,34.0,27.3,22.0,55,36,16,0.00,40.00,30,10,37,0.00
2013-5-29,59.0,50.5,45.0,38.0,32.2,24.0,68,51,27,0.00,40.00,27,11,32,0.00
2013-5-30,57.0,49.9,45.0,37.0,24.9,19.0,66,38,23,0.00,40.00,30,18,40,0.00
2013-5-31,53.0,47.0,41.0,32.0,22.8,19.0,68,39,27,0.00,40.00,32,17,47,0.00
2013-6-1,63.0,50.7,41.0,32.0,24.0,18.0,69,38,18,0.00,40.00,16,9,21,0.00
2013-6-2,82.0,61.9,40.0,28.0,21.3,15.0,54,25,9,0.00,40.00,19,11,29,0.00
2013-6-3,71.0,60.0,45.0,39.0,19.3,6.0,62,25,9,0.00,40.00,30,14,42,0.00
2013-6-4,55.0,46.5,36.0,28.0,24.5,21.0,67,43,29,0.00,40.00,24,11,29,0.00
2013-6-5,66.0,51.9,37.0,27.0,22.8,19.0,60,35,17,0.00,40.00,18,6,22,0.00
2013-6-6,74.0,61.0,43.0,27.0,24.0,19.0,39,25,16,0.00,40.00,17,8,21,0.00
2013-6-7,80.0,65.9,51.0,33.0,27.5,19.0,36,24,10,0.00,40.00,17,9,24,0.00
2013-6-8,71.0,60.7,51.0,42.0,30.1,16.0,66,34,12,0.00,40.00,34,4,44,0.00
2013-6-9,88.0,68.4,45.0,33.0,28.1,20.0,51,25,9,0.00,40.00,18,8,35,0.00
2013-6-10,89.0,72.7,59.0,40.0,33.3,25.0,36,24,12,0.00,40.00,35,11,44,0.00
2013-6-11,90.0,69.9,51.0,43.0,31.5,16.0,66,30,9,0.00,40.00,34,13,44,0.00
2013-6-12,85.0,63.6,45.0,40.0,34.7,20.0,67,39,10,0.00,40.00,35,13,45,0.00
2013-6-13,87.0,67.5,51.0,40.0,33.8,21.0,64,34,9,0.00,40.00,32,14,46,0.00
2013-6-14,78.0,63.9,46.0,42.0,27.5,13.0,61,31,9,0.00,40.00,37,18,63,0.00
2013-6-15,79.0,62.8,42.0,33.0,27.3,22.0,50,28,13,0.00,40.00,13,6,20,0.00
2013-6-16,82.0,70.1,52.0,34.0,25.4,18.0,36,20,9,0.00,40.00,19,9,28,0.00
2013-6-17,82.0,67.2,53.0,40.0,35.4,29.0,50,32,18,0.00,40.00,28,12,34,0.00
2013-6-18,86.0,68.4,53.0,41.0,33.5,26.0,49,29,13,0.00,40.00,39,13,50,0.00
2013-6-19,90.0,74.1,54.0,39.0,27.8,8.0,45,22,9,0.00,40.00,35,17,42,0.00
2013-6-20,78.0,62.2,49.0,18.0,12.4,4.0,20,14,9,0.00,40.00,22,11,29,0.00
2013-6-22,65.0,52.6,49.0,39.0,36.7,34.0,64,55,33,0.00,40.00,29,13,34,0.00
2013-6-23,81.0,62.1,44.0,38.0,28.7,16.0,68,37,9,0.00,40.00,22,10,32,0.00
2013-6-24,88.0,68.3,53.0,40.0,28.6,14.0,57,29,9,0.00,40.00,27,12,35,0.00
2013-6-25,81.0,71.5,59.0,32.0,25.5,19.0,32,18,12,0.00,40.00,28,16,34,0.00
2013-6-26,88.0,76.8,58.0,38.0,30.1,24.0,34,18,12,0.00,40.00,22,12,34,0.00
2013-6-27,91.0,75.4,59.0,43.0,35.1,25.0,48,27,9,0.00,40.00,17,8,27,0.00
2013-6-28,89.0,75.6,62.0,44.0,40.3,38.0,45,29,18,0.00,40.00,22,11,30,0.00
2013-6-29,87.0,76.2,62.0,42.0,38.5,36.0,40,26,17,0.00,40.00,21,11,27,0.00
2013-6-30,84.0,67.3,60.0,48.0,41.3,30.0,65,42,16,0.00,40.00,12,6,18,0.00
2013-7-1,83.0,70.8,57.0,38.0,33.8,31.0,41,27,16,0.00,40.00,18,12,24,0.00
2013-7-2,85.0,73.6,58.0,39.0,33.8,28.0,47,25,13,0.00,40.00,16,9,21,0.00
2013-7-3,88.0,74.5,57.0,46.0,36.2,26.0,38,26,13,0.00,40.00,20,9,29,0.00
2013-7-4,88.0,74.6,56.0,49.0,40.9,34.0,67,32,16,0.00,40.00,25,8,31,0.00
2013-7-5,72.0,60.6,57.0,49.0,46.4,43.0,68,60,36,0.00,40.00,17,-33,24,0.00
2013-7-6,83.0,62.4,58.0,47.0,43.4,31.0,65,52,15,0.00,40.00,21,9,24,0.00
2013-7-7,92.0,73.2,59.0,48.0,35.7,23.0,65,35,9,0.00,40.00,20,9,24,0.00
2013-7-8,86.0,61.4,59.0,43.0,33.4,-99.9,51,41,10,0.00,40.00,19,12,26,0.00
2013-7-9,86.0,76.1,57.0,38.0,35.1,30.0,45,24,14,0.00,40.00,22,12,26,0.00
2013-7-10,93.0,77.8,62.0,44.0,25.7,-99.9,45,19,9,0.00,40.00,22,11,34,0.00
2013-7-11,98.0,82.9,65.0,44.0,36.8,27.0,40,23,9,0.00,40.00,19,10,34,0.00
2013-7-12,82.0,74.8,67.0,45.0,40.4,35.0,43,29,23,0.00,40.00,17,10,26,0.00
2013-7-13,88.0,75.3,60.0,44.0,38.0,31.0,51,28,14,0.00,40.00,14,9,24,0.00
2013-7-15,84.0,80.6,72.0,39.0,34.3,32.0,30,19,16,0.00,40.00,23,18,30,0.00
2013-7-16,82.0,70.4,64.0,44.0,40.5,30.0,45,34,15,0.00,40.00,21,13,31,0.00
2013-7-17,89.0,63.3,56.0,45.0,41.2,30.0,63,48,11,0.00,40.00,15,8,20,0.00
2013-7-18,89.0,79.6,70.0,40.0,35.6,32.0,28,21,14,0.00,40.00,16,10,21,0.00
2013-7-19,72.0,70.9,68.0,45.0,44.1,44.0,42,38,36,0.00,40.00,7,6,8,0.00
2013-7-22,94.0,87.6,72.0,36.0,27.1,17.0,22,11,9,0.00,40.00,20,-52,29,0.00
2013-7-23,88.0,75.0,58.0,44.0,34.7,27.0,52,27,11,0.00,40.00,17,8,21,0.00
2013-7-24,85.0,74.5,60.0,46.0,42.5,34.0,50,32,21,0.00,40.00,27,12,42,0.00
2013-7-25,82.0,70.4,61.0,43.0,39.7,35.0,48,33,20,0.00,40.00,15,8,19,0.00
2013-7-26,87.0,71.8,54.0,42.0,38.8,35.0,54,32,16,0.00,40.00,22,10,27,0.00
2013-7-27,78.0,65.9,55.0,44.0,41.1,36.0,59,41,25,0.00,40.00,25,13,32,0.00
2013-7-28,83.0,70.2,58.0,48.0,40.8,34.0,66,37,18,0.00,40.00,28,11,38,0.00
2013-7-29,78.0,63.8,53.0,46.0,41.0,36.0,66,45,24,0.00,40.00,22,11,29,0.00
2013-7-30,76.0,65.1,54.0,44.0,38.4,29.0,65,40,17,0.00,40.00,22,13,30,0.00
2013-7-31,83.0,63.9,51.0,42.0,37.8,31.0,65,43,15,0.00,40.00,14,9,19,0.00
2013-8-1,85.0,65.2,56.0,43.0,40.2,34.0,57,43,19,0.00,40.00,17,9,22,0.00
2013-8-2,89.0,73.0,63.0,47.0,37.9,25.0,52,31,9,0.00,40.00,21,11,31,0.00
2013-8-3,71.0,62.5,55.0,48.0,46.8,45.0,69,57,41,0.00,40.00,29,14,39,0.00
2013-8-4,90.0,71.5,59.0,48.0,38.5,25.0,66,41,9,0.00,40.00,10,6,14,0.00
2013-8-5,89.0,72.5,62.0,50.0,38.1,20.0,63,38,9,0.00,40.00,19,13,26,0.00
2013-8-6,83.0,75.6,65.0,38.0,34.1,32.0,31,22,15,0.00,40.00,18,10,25,0.00
2013-8-7,86.0,75.0,59.0,42.0,36.5,29.0,48,26,13,0.00,40.00,25,8,30,0.00
2013-8-8,82.0,66.8,53.0,40.0,36.5,31.0,55,35,19,0.00,40.00,29,11,63,0.00
2013-8-9,75.0,60.8,54.0,43.0,39.1,34.0,57,46,23,0.00,40.00,19,10,24,0.00
2013-8-10,82.0,69.8,52.0,40.0,34.1,27.0,61,29,14,0.00,40.00,20,8,35,0.00
2013-8-11,87.0,69.1,56.0,42.0,32.6,24.0,50,28,10,0.00,40.00,22,10,28,0.00